DW4379 Weather Reports


Display with metric or nautical units.
time (UTC)temp
F
wind
direction
speed
MPH
gust
MPH
rain 1hr
in
rain 24hr
in
rain mn
in
humidity
%
barometer
mb
20260509084003 54 0 0.0 0.0 0.00 0.00 0.00 97 1006.0
20260509083503 54 334 0.0 1.0 0.00 0.00 0.00 97 1006.1
20260509083003 54 334 0.0 1.0 0.00 0.00 0.00 97 1006.3
20260509082503 55 0 0.0 0.0 0.00 0.00 0.00 97 1006.3
20260509082003 55 0 0.0 0.0 0.00 0.00 0.00 97 1006.4
20260509081504 55 0 0.0 0.0 0.00 0.00 0.00 97 1006.3
20260509081218 55 0 0.0 0.0 0.00 0.00 0.00 97 1006.3
20260509080503 55 0 0.0 0.0 0.00 0.00 0.00 97 1006.5
20260509080003 55 0 0.0 0.0 0.00 0.00 0.00 97 1006.6
20260509075503 55 0 0.0 0.0 0.00 0.00 0.00 97 1006.7
20260509075218 55 0 0.0 0.0 0.00 0.00 0.00 97 1006.6
20260509074504 55 0 0.0 0.0 0.00 0.00 0.00 97 1006.7
20260509074003 55 0 0.0 0.0 0.00 0.00 0.00 97 1006.7
20260509073503 55 334 0.0 1.0 0.00 0.00 0.00 97 1006.6
20260509073003 55 20 0.0 2.0 0.00 0.00 0.00 97 1006.7
20260509072504 55 118 1.0 3.0 0.00 0.00 0.00 97 1006.5
20260509072009 55 119 1.0 3.0 0.00 0.00 0.00 97 1006.2
20260509071718 55 125 1.0 3.0 0.00 0.00 0.00 97 1006.4
20260509071003 56 168 0.0 2.0 0.00 0.00 0.00 97 1006.7
20260509070503 56 158 0.0 1.0 0.00 0.00 0.00 97 1006.9
20260509070003 56 158 0.0 1.0 0.00 0.00 0.00 97 1007.1
20260509065503 56 192 0.0 1.0 0.00 0.00 0.00 97 1007.3
20260509065003 56 0 0.0 0.0 0.00 0.00 0.00 97 1007.5
20260509064718 56 213 0.0 1.0 0.00 0.00 0.00 97 1007.6
20260509064003 56 213 0.0 1.0 0.00 0.00 0.00 97 1007.7
20260509063503 56 0 0.0 0.0 0.00 0.00 0.00 97 1007.6
20260509063003 56 0 0.0 0.0 0.00 0.00 0.00 97 1007.5
20260509062503 56 0 0.0 0.0 0.00 0.00 0.00 97 1007.4
20260509062003 56 0 0.0 0.0 0.00 0.00 0.00 97 1007.5
20260509061504 56 0 0.0 0.0 0.00 0.00 0.00 97 1007.8
20260509061003 56 0 0.0 0.0 0.00 0.00 0.00 97 1007.8
20260509060503 56 210 0.0 1.0 0.00 0.00 0.00 97 1007.9
20260509060004 56 228 0.0 1.0 0.00 0.00 0.00 97 1007.8
20260509055503 56 237 0.0 1.0 0.00 0.00 0.00 97 1007.8
20260509055003 56 233 0.0 2.0 0.00 0.00 0.00 97 1007.9
20260509054503 56 228 0.0 3.0 0.00 0.00 0.00 97 1007.8
20260509054003 56 230 0.0 3.0 0.00 0.00 0.00 97 1008.0
20260509053718 56 239 0.0 2.0 0.00 0.00 0.00 97 1008.0
20260509053003 56 221 0.0 3.0 0.00 0.00 0.00 97 1008.0
20260509052503 56 219 0.0 3.0 0.00 0.00 0.00 97 1008.0
20260509052003 56 235 0.0 1.0 0.00 0.00 0.00 97 1008.0
20260509051503 56 235 0.0 2.0 0.00 0.00 0.00 97 1008.1
20260509051003 56 241 0.0 3.0 0.00 0.00 0.00 97 1008.1
20260509050503 56 240 0.0 3.0 0.00 0.00 0.00 97 1008.1
20260509050003 56 233 0.0 5.0 0.00 0.00 0.00 97 1008.1
20260509045503 57 237 0.0 5.0 0.00 0.00 0.00 97 1008.0
20260509045003 57 185 0.0 2.0 0.00 0.00 0.00 97 1008.1
20260509044718 57 134 0.0 2.0 0.00 0.00 0.00 97 1008.1
20260509044008 57 110 0.0 2.0 0.00 0.00 0.00 97 1008.1
20260509043503 57 107 1.0 3.0 0.00 0.00 0.00 97 1008.1
20260509043004 57 117 1.0 3.0 0.00 0.00 0.00 97 1008.1
20260509042503 57 118 1.0 3.0 0.00 0.00 0.00 97 1008.1
20260509042004 57 117 0.0 3.0 0.00 0.00 0.00 97 1008.2
20260509041503 57 145 0.0 2.0 0.00 0.00 0.00 97 1008.1
20260509041003 57 128 1.0 4.0 0.00 0.00 0.00 97 1008.2
20260509040503 57 114 1.0 5.0 0.00 0.00 0.00 97 1008.2
20260509040220 57 114 1.0 5.0 0.00 0.00 0.00 97 1008.1
20260509035503 57 109 1.0 4.0 0.00 0.00 0.00 97 1008.3
20260509035003 57 116 0.0 3.0 0.00 0.00 0.00 97 1008.2
20260509034503 57 114 0.0 3.0 0.00 0.00 0.00 97 1008.3
20260509034004 57 112 0.0 3.0 0.00 0.00 0.00 96 1008.3
20260509033503 57 117 0.0 2.0 0.00 0.00 0.00 96 1008.4
20260509033003 57 131 0.0 2.0 0.00 0.00 0.00 96 1008.3
20260509032503 57 155 0.0 1.0 0.00 0.00 0.00 96 1008.2
20260509032003 57 100 0.0 1.0 0.00 0.00 0.00 96 1008.2
20260509031503 57 108 0.0 1.0 0.00 0.00 0.00 96 1008.3
20260509031003 57 112 0.0 1.0 0.00 0.00 0.00 96 1008.4
20260509030503 57 137 0.0 1.0 0.00 0.00 0.00 96 1008.5
20260509030218 57 137 0.0 1.0 0.00 0.00 0.00 96 1008.5
20260509025503 57 137 0.0 1.0 0.00 0.00 0.00 96 1008.4
20260509025003 57 104 0.0 1.0 0.00 0.00 0.00 96 1008.5
20260509024503 57 102 0.0 1.0 0.00 0.00 0.00 96 1008.4
20260509024003 57 88 0.0 1.0 0.00 0.00 0.00 96 1008.4
20260509023717 57 88 0.0 1.0 0.00 0.00 0.00 96 1008.4
20260509023003 57 0 0.0 0.0 0.00 0.00 0.00 96 1008.3
20260509022503 57 0 0.0 0.0 0.00 0.00 0.00 96 1008.4
20260509022003 57 0 0.0 0.0 0.00 0.00 0.00 96 1008.3
20260509021719 57 0 0.0 0.0 0.00 0.00 0.00 96 1008.3
20260509021003 57 0 0.0 0.0 0.00 0.00 0.00 96 1008.4
20260509020503 57 0 0.0 0.0 0.00 0.00 0.00 96 1008.2
20260509020004 57 0 0.0 0.0 0.00 0.00 0.00 96 1008.1
20260509015503 57 0 0.0 0.0 0.00 0.00 0.00 96 1008.1
20260509015003 57 0 0.0 0.0 0.00 0.00 0.00 96 1007.9
20260509014503 57 0 0.0 0.0 0.00 0.00 0.00 96 1007.9
20260509014004 57 0 0.0 0.0 0.00 0.00 0.00 96 1007.9
20260509013503 57 0 0.0 0.0 0.00 0.00 0.00 95 1008.0
20260509013217 57 0 0.0 0.0 0.00 0.00 0.00 95 1008.1
20260509012503 57 0 0.0 0.0 0.00 0.00 0.00 95 1008.1
20260509012217 57 0 0.0 0.0 0.00 0.00 0.00 95 1008.0
20260509011503 57 0 0.0 0.0 0.00 0.00 0.00 95 1008.0
20260509011003 57 0 0.0 0.0 0.00 0.00 0.00 95 1008.0
20260509010503 57 0 0.0 0.0 0.00 0.00 0.00 95 1008.0
20260509010217 57 0 0.0 0.0 0.00 0.00 0.00 95 1008.0
20260509005504 57 0 0.0 0.0 0.00 0.00 0.00 95 1007.8
20260509005003 57 0 0.0 0.0 0.00 0.00 0.00 95 1007.8
20260509004503 57 226 0.0 1.0 0.00 0.00 0.00 95 1007.8
20260509004003 57 226 0.0 1.0 0.00 0.00 0.00 94 1007.8
20260509003503 58 0 0.0 0.0 0.00 0.00 0.00 94 1007.8
20260509003003 58 0 0.0 0.0 0.00 0.00 0.00 94 1007.9
20260509002504 58 228 0.0 1.0 0.00 0.00 0.00 94 1008.0
20260509002004 58 228 0.0 1.0 0.00 0.00 0.00 94 1008.1
20260509001503 58 0 0.0 0.0 0.00 0.00 0.00 94 1007.9
20260509001003 58 0 0.0 0.0 0.00 0.00 0.00 94 1007.8
20260509000503 58 170 0.0 1.0 0.00 0.00 0.00 94 1007.8
20260509000004 58 168 0.0 2.0 0.00 0.00 0.00 93 1007.9
20260508235503 58 163 0.0 2.0 0.00 0.00 0.00 94 1007.9
20260508235003 58 75 0.0 2.0 0.00 0.00 0.00 94 1008.1
20260508234503 58 75 0.0 2.0 0.00 0.00 0.00 93 1007.8
20260508234003 58 0 0.0 0.0 0.00 0.00 0.00 93 1008.3
20260508233503 58 349 0.0 1.0 0.00 0.00 0.00 93 1008.5
20260508233003 58 349 0.0 1.0 0.00 0.00 0.00 93 1008.3
20260508232504 58 355 0.0 2.0 0.00 0.00 0.00 93 1008.3
20260508232003 59 355 0.0 2.0 0.00 0.00 0.00 93 1008.2
20260508231503 59 0 0.0 0.0 0.00 0.00 0.00 92 1008.3
20260508231003 59 0 0.0 0.0 0.00 0.00 0.00 92 1008.4
20260508230503 59 0 0.0 0.0 0.00 0.00 0.00 92 1008.4
20260508230003 59 333 0.0 2.0 0.00 0.00 0.00 91 1008.5
20260508225503 60 355 0.0 2.0 0.00 0.00 0.00 91 1008.5
20260508225003 60 3 0.0 2.0 0.00 0.00 0.00 90 1008.6
20260508224503 60 0 0.0 0.0 0.00 0.00 0.00 89 1008.7
20260508224003 60 338 0.0 2.0 0.00 0.00 0.00 88 1008.6
20260508223504 60 341 0.0 2.0 0.00 0.00 0.00 88 1008.4
20260508223003 60 3 0.0 1.0 0.00 0.00 0.00 88 1008.3
20260508222503 60 22 0.0 1.0 0.00 0.00 0.00 87 1008.5
20260508222003 61 0 0.0 0.0 0.00 0.00 0.00 89 1008.4
20260508221503 61 0 0.0 0.0 0.00 0.00 0.00 88 1008.4
20260508221003 61 34 0.0 1.0 0.00 0.00 0.00 88 1008.3
20260508220503 61 35 0.0 1.0 0.00 0.00 0.00 88 1008.3
20260508220003 61 27 0.0 1.0 0.00 0.00 0.00 86 1008.2
20260508215717 61 360 0.0 1.0 0.00 0.00 0.00 86 1008.2
20260508215003 62 335 0.0 1.0 0.00 0.00 0.00 86 1008.1
20260508214503 62 0 0.0 0.0 0.00 0.00 0.00 84 1008.1
20260508214003 62 331 0.0 1.0 0.00 0.00 0.00 83 1008.1
20260508213503 62 327 0.0 1.0 0.00 0.00 0.00 80 1007.9
20260508213003 62 319 0.0 1.0 0.00 0.00 0.00 79 1008.4
20260508212503 63 314 0.0 2.0 0.00 0.00 0.00 79 1008.1
20260508212003 63 311 0.0 2.0 0.00 0.00 0.00 77 1008.3
20260508211504 64 304 0.0 1.0 0.00 0.00 0.00 76 1008.4
20260508211003 64 0 0.0 0.0 0.00 0.00 0.00 75 1008.4
20260508210503 65 0 0.0 0.0 0.00 0.00 0.00 74 1008.5
20260508210003 65 0 0.0 0.0 0.00 0.00 0.00 73 1008.4
20260508205503 65 0 0.0 0.0 0.00 0.00 0.00 73 1008.2
20260508205003 65 0 0.0 0.0 0.00 0.00 0.00 73 1008.2
20260508204719 65 0 0.0 0.0 0.00 0.00 0.00 73 1008.1
20260508204003 65 0 0.0 0.0 0.00 0.00 0.00 73 1008.3
20260508203503 65 0 0.0 0.0 0.00 0.00 0.00 72 1008.3
20260508203003 65 0 0.0 0.0 0.00 0.00 0.00 72 1008.3
20260508202503 65 0 0.0 0.0 0.00 0.00 0.00 72 1008.3
20260508202217 65 236 0.0 1.0 0.00 0.00 0.00 72 1008.3
20260508201503 66 236 0.0 1.0 0.00 0.00 0.00 71 1008.4
20260508201003 66 0 0.0 0.0 0.00 0.00 0.00 70 1008.3
20260508200503 66 237 0.0 1.0 0.00 0.00 0.00 69 1008.4
20260508200003 66 212 0.0 2.0 0.00 0.00 0.00 68 1008.4
20260508195503 66 226 0.0 3.0 0.00 0.00 0.00 67 1008.5
20260508195217 66 226 0.0 3.0 0.00 0.00 0.00 67 1008.6
20260508194503 67 236 1.0 8.0 0.00 0.00 0.00 65 1008.5
20260508194003 67 236 1.0 8.0 0.00 0.00 0.00 65 1008.7
20260508193504 68 233 0.0 3.0 0.00 0.00 0.00 65 1008.7
20260508193003 68 227 0.0 3.0 0.00 0.00 0.00 65 1008.7
20260508192504 68 240 0.0 3.0 0.00 0.00 0.00 63 1008.7
20260508192003 68 213 0.0 3.0 0.00 0.00 0.00 62 1008.9
20260508191503 69 200 0.0 3.0 0.00 0.00 0.00 61 1008.8
20260508191003 69 241 0.0 3.0 0.00 0.00 0.00 62 1008.9
20260508190503 68 234 0.0 3.0 0.00 0.00 0.00 61 1008.9
20260508190003 68 214 0.0 3.0 0.00 0.00 0.00 60 1008.9
20260508185503 68 221 0.0 3.0 0.00 0.00 0.00 59 1009.0
20260508185217 68 239 0.0 2.0 0.00 0.00 0.00 59 1009.0
20260508184504 68 230 0.0 4.0 0.00 0.00 0.00 59 1009.1
20260508184003 68 235 0.0 4.0 0.00 0.00 0.00 60 1009.1
20260508183503 68 229 0.0 2.0 0.00 0.00 0.00 60 1009.1
20260508183003 68 234 0.0 2.0 0.00 0.00 0.00 59 1009.2
20260508182503 68 234 0.0 2.0 0.00 0.00 0.00 58 1009.3
20260508182003 69 232 0.0 2.0 0.00 0.00 0.00 58 1009.2
20260508181718 69 187 0.0 2.0 0.00 0.00 0.00 58 1009.1
20260508181003 69 210 1.0 5.0 0.00 0.00 0.00 58 1009.2
20260508180503 69 226 1.0 5.0 0.00 0.00 0.00 57 1009.4
20260508180218 69 234 1.0 4.0 0.00 0.00 0.00 56 1009.3
20260508175503 70 251 1.0 5.0 0.00 0.00 0.00 54 1009.5
20260508175003 70 237 1.0 5.0 0.00 0.00 0.00 52 1009.7
20260508174503 71 205 1.0 6.0 0.00 0.00 0.00 54 1009.7
20260508174003 72 217 1.0 7.0 0.00 0.00 0.00 55 1009.6
20260508173503 71 229 2.0 7.0 0.00 0.00 0.00 58 1009.7
20260508173003 70 227 1.0 7.0 0.00 0.00 0.00 56 1009.9
20260508172503 71 235 1.0 5.0 0.00 0.00 0.00 54 1009.9
20260508172218 70 231 1.0 5.0 0.00 0.00 0.00 55 1009.9
20260508171503 71 257 1.0 6.0 0.00 0.00 0.00 54 1010.1
20260508171003 71 257 2.0 7.0 0.00 0.00 0.00 54 1010.2
20260508170503 71 260 2.0 7.0 0.00 0.00 0.00 52 1010.1
20260508170003 71 256 1.0 5.0 0.00 0.00 0.00 52 1010.3
20260508165503 72 225 1.0 5.0 0.00 0.00 0.00 54 1010.4
20260508165004 71 213 1.0 4.0 0.00 0.00 0.00 53 1010.4
20260508164504 71 159 1.0 6.0 0.00 0.00 0.00 55 1010.6
20260508164003 70 153 1.0 6.0 0.00 0.00 0.00 56 1010.7
20260508163504 70 164 1.0 6.0 0.00 0.00 0.00 55 1010.8
20260508163003 69 164 1.0 6.0 0.00 0.00 0.00 55 1010.7
20260508162503 69 196 2.0 8.0 0.00 0.00 0.00 58 1010.8
20260508162003 68 225 2.0 8.0 0.00 0.00 0.00 55 1010.9
20260508161504 68 227 1.0 6.0 0.00 0.00 0.00 56 1011.0
20260508161003 68 198 1.0 6.0 0.00 0.00 0.00 58 1010.9
20260508160503 67 194 1.0 6.0 0.00 0.00 0.00 59 1011.0
20260508160004 67 214 0.0 3.0 0.00 0.00 0.00 61 1011.0
20260508155503 66 229 1.0 4.0 0.00 0.00 0.00 60 1011.0
20260508155003 66 236 1.0 4.0 0.00 0.00 0.00 60 1011.1
20260508154503 65 239 1.0 4.0 0.00 0.00 0.00 59 1011.2
20260508154003 65 233 1.0 4.0 0.00 0.00 0.00 60 1011.3
20260508153503 65 229 1.0 4.0 0.00 0.00 0.00 59 1011.4
20260508153003 65 217 1.0 4.0 0.00 0.00 0.00 61 1011.5
20260508152503 65 235 0.0 3.0 0.00 0.00 0.00 62 1011.5
20260508152003 64 255 1.0 4.0 0.00 0.00 0.00 62 1011.6
20260508151503 64 248 1.0 4.0 0.00 0.00 0.00 62 1011.5
20260508151003 64 234 1.0 4.0 0.00 0.00 0.00 61 1011.5
20260508150718 64 237 1.0 4.0 0.00 0.00 0.00 62 1011.5
20260508150217 64 219 0.0 3.0 0.00 0.00 0.00 62 1011.5
20260508145503 64 239 1.0 5.0 0.00 0.00 0.00 63 1011.5
20260508145003 63 197 1.0 5.0 0.00 0.00 0.00 63 1011.5
20260508144503 63 168 1.0 4.0 0.00 0.00 0.00 63 1011.5
20260508144003 63 215 1.0 4.0 0.00 0.00 0.00 64 1011.6
20260508143503 62 232 1.0 4.0 0.00 0.00 0.00 64 1011.6
20260508143004 62 219 1.0 5.0 0.00 0.00 0.00 64 1011.7
20260508142503 62 205 1.0 5.0 0.00 0.00 0.00 65 1011.8
20260508142004 61 224 1.0 4.0 0.00 0.00 0.00 66 1011.8
20260508141718 61 221 1.0 3.0 0.00 0.00 0.00 66 1011.8
20260508141003 60 224 0.0 4.0 0.00 0.00 0.00 67 1011.9
20260508140504 60 236 1.0 5.0 0.00 0.00 0.00 66 1012.0
20260508140003 60 241 1.0 5.0 0.00 0.00 0.00 66 1012.2
20260508135503 59 233 1.0 4.0 0.00 0.00 0.00 66 1012.2
20260508135003 59 223 1.0 6.0 0.00 0.00 0.00 67 1012.1
20260508134718 59 229 1.0 6.0 0.00 0.00 0.00 66 1012.2
20260508134003 58 238 1.0 6.0 0.00 0.00 0.00 67 1012.2
20260508133503 58 230 1.0 6.0 0.00 0.00 0.00 67 1012.3
20260508133003 58 227 1.0 5.0 0.00 0.00 0.00 68 1012.3
20260508132504 57 236 1.0 5.0 0.00 0.00 0.00 68 1012.3
20260508132003 57 236 1.0 9.0 0.00 0.00 0.00 68 1012.2
20260508131718 56 238 1.0 9.0 0.00 0.00 0.00 68 1012.2
20260508131003 56 237 1.0 4.0 0.00 0.00 0.00 68 1012.1
20260508130503 56 231 1.0 4.0 0.00 0.00 0.00 68 1012.2
20260508130217 56 236 1.0 4.0 0.00 0.00 0.00 68 1012.2
20260508125503 55 233 0.0 2.0 0.00 0.00 0.00 69 1012.3
20260508125219 55 227 0.0 3.0 0.00 0.00 0.00 70 1012.2
20260508124503 55 207 1.0 3.0 0.00 0.00 0.00 69 1012.3
20260508124003 55 161 1.0 4.0 0.00 0.00 0.00 70 1012.5
20260508123503 54 162 0.0 4.0 0.00 0.00 0.00 69 1012.5
20260508123003 54 218 0.0 2.0 0.00 0.00 0.00 71 1012.5
20260508122503 54 191 0.0 1.0 0.00 0.00 0.00 71 1012.5
20260508122003 53 238 0.0 1.0 0.00 0.00 0.00 72 1012.5
20260508121503 53 234 0.0 2.0 0.00 0.00 0.00 71 1012.5
20260508121003 53 233 0.0 2.0 0.00 0.00 0.00 71 1012.4
20260508120503 53 272 0.0 1.0 0.00 0.00 0.00 72 1012.4
20260508120004 52 229 0.0 1.0 0.00 0.00 0.00 72 1012.5
20260508115504 52 224 0.0 1.0 0.00 0.00 0.00 73 1012.4
20260508115003 51 229 0.0 2.0 0.00 0.00 0.00 73 1012.4
20260508114503 51 233 0.0 2.0 0.00 0.00 0.00 74 1012.3
20260508114003 50 0 0.0 0.0 0.00 0.00 0.00 75 1012.3
20260508113503 50 0 0.0 0.0 0.00 0.00 0.00 75 1012.3
20260508113004 50 0 0.0 0.0 0.00 0.00 0.00 75 1012.1
20260508112503 50 0 0.0 0.0 0.00 0.00 0.00 76 1012.1
20260508112218 50 0 0.0 0.0 0.00 0.00 0.00 76 1012.0
20260508111503 49 0 0.0 0.0 0.00 0.00 0.00 76 1012.1
20260508111003 49 0 0.0 0.0 0.00 0.00 0.00 76 1012.2
20260508110503 49 0 0.0 0.0 0.00 0.00 0.00 76 1012.2
20260508110218 49 0 0.0 0.0 0.00 0.00 0.00 75 1012.1
20260508105503 49 0 0.0 0.0 0.00 0.00 0.00 75 1012.0
20260508105003 49 0 0.0 0.0 0.00 0.00 0.00 75 1012.0
20260508104503 49 0 0.0 0.0 0.00 0.00 0.00 74 1012.1
20260508104003 49 0 0.0 0.0 0.00 0.00 0.00 74 1012.1
20260508103503 49 0 0.0 0.0 0.00 0.00 0.00 73 1012.1
20260508103218 49 0 0.0 0.0 0.00 0.00 0.00 73 1012.2
20260508102503 50 0 0.0 0.0 0.00 0.00 0.00 73 1012.1
20260508102003 50 0 0.0 0.0 0.00 0.00 0.00 72 1012.1
20260508101504 50 0 0.0 0.0 0.00 0.00 0.00 72 1012.1
20260508101003 50 0 0.0 0.0 0.00 0.00 0.00 72 1012.1
20260508100503 50 0 0.0 0.0 0.00 0.00 0.00 71 1012.1
20260508100004 50 0 0.0 0.0 0.00 0.00 0.00 71 1012.2
20260508095503 50 0 0.0 0.0 0.00 0.00 0.00 71 1012.1
20260508095217 50 0 0.0 0.0 0.00 0.00 0.00 71 1012.1
20260508094503 50 0 0.0 0.0 0.00 0.00 0.00 70 1012.1
20260508094003 51 0 0.0 0.0 0.00 0.00 0.00 70 1012.1
20260508093718 51 0 0.0 0.0 0.00 0.00 0.00 70 1012.1
20260508093003 51 0 0.0 0.0 0.00 0.00 0.00 70 1012.0
20260508092503 51 242 0.0 1.0 0.00 0.00 0.00 69 1012.1
20260508092003 51 242 0.0 1.0 0.00 0.00 0.00 68 1012.1
20260508091718 51 243 0.0 1.0 0.00 0.00 0.00 68 1012.1
20260508091217 52 230 0.0 2.0 0.00 0.00 0.00 68 1012.0
20260508090503 52 223 0.0 2.0 0.00 0.00 0.00 67 1012.0
20260508090003 52 223 0.0 1.0 0.00 0.00 0.00 67 1012.0
20260508085503 52 236 0.0 1.0 0.00 0.00 0.00 67 1011.9
20260508085003 52 234 0.0 1.0 0.00 0.00 0.00 67 1011.9
20260508084503 52 231 0.0 1.0 0.00 0.00 0.00 67 1011.9